| time (UTC) | temp F | wind direction | speed MPH | gust MPH | rain 1hr in | rain 24hr in | rain mn in | humidity % | barometer mb |
| 20260506133725 | 54 | 191 | 0.0 | 0.0 | 0.00 | 0.00 | 0.00 | 85 | 1037.0 |
| 20260506132725 | 54 | 322 | 0.0 | 0.0 | 0.00 | 0.00 | 0.00 | 86 | 1037.0 |
| 20260506131724 | 54 | 325 | 0.0 | 0.0 | 0.00 | 0.00 | 0.00 | 86 | 1036.8 |
| 20260506130725 | 54 | 299 | 0.0 | 0.0 | 0.00 | 0.00 | 0.00 | 85 | 1036.7 |
| 20260506125726 | 54 | 182 | 0.0 | 0.0 | 0.00 | 0.00 | 0.00 | 86 | 1036.7 |
| 20260506123824 | 54 | 337 | 0.0 | 0.0 | 0.00 | 0.00 | 0.00 | 86 | 1036.5 |
| 20260506122824 | 54 | 268 | 0.0 | 0.0 | 0.00 | 0.00 | 0.00 | 85 | 1036.4 |
| 20260506115924 | 54 | 337 | 0.0 | 0.0 | 0.00 | 0.00 | 0.00 | 86 | 1036.4 |
| 20260506115826 | 54 | 308 | 0.0 | 0.0 | 0.00 | 0.00 | 0.00 | 85 | 1036.4 |
| 20260506114825 | 54 | 337 | 0.0 | 0.0 | 0.00 | 0.00 | 0.00 | 86 | 1036.4 |
| 20260506112924 | 55 | 337 | 0.0 | 0.0 | 0.00 | 0.00 | 0.00 | 83 | 1036.3 |
| 20260506111925 | 55 | 182 | 0.0 | 0.0 | 0.00 | 0.00 | 0.00 | 83 | 1036.3 |
| 20260506110925 | 55 | 337 | 0.0 | 0.0 | 0.00 | 0.00 | 0.00 | 83 | 1036.2 |
| 20260506105926 | 56 | 337 | 0.0 | 0.0 | 0.00 | 0.00 | 0.00 | 82 | 1036.2 |
| 20260506105023 | 56 | 326 | 0.0 | 0.0 | 0.00 | 0.00 | 0.00 | 82 | 1036.1 |
| 20260506103925 | 56 | 337 | 0.0 | 0.0 | 0.00 | 0.00 | 0.00 | 82 | 1036.3 |
| 20260506103024 | 56 | 337 | 0.0 | 0.0 | 0.00 | 0.00 | 0.00 | 81 | 1036.1 |
| 20260506102025 | 57 | 337 | 0.0 | 0.0 | 0.00 | 0.00 | 0.00 | 80 | 1036.3 |
| 20260506101025 | 57 | 337 | 0.0 | 0.0 | 0.00 | 0.00 | 0.00 | 81 | 1036.1 |
| 20260506100044 | 56 | 337 | 0.0 | 0.0 | 0.00 | 0.00 | 0.00 | 81 | 1036.1 |
| 20260506094025 | 56 | 337 | 0.0 | 0.0 | 0.00 | 0.00 | 0.00 | 80 | 1036.0 |
| 20260506093124 | 56 | 337 | 0.0 | 0.0 | 0.00 | 0.00 | 0.00 | 81 | 1036.0 |
| 20260506091126 | 57 | 337 | 0.0 | 0.0 | 0.00 | 0.00 | 0.00 | 80 | 1036.2 |
| 20260506090126 | 57 | 337 | 0.0 | 0.0 | 0.00 | 0.00 | 0.00 | 79 | 1036.3 |
| 20260506085126 | 57 | 337 | 0.0 | 0.0 | 0.00 | 0.00 | 0.00 | 79 | 1036.3 |
| 20260506084128 | 58 | 337 | 0.0 | 0.0 | 0.00 | 0.00 | 0.00 | 79 | 1036.4 |
| 20260506083126 | 58 | 337 | 0.0 | 0.0 | 0.00 | 0.00 | 0.00 | 79 | 1036.4 |
| 20260506082126 | 58 | 337 | 0.0 | 0.0 | 0.00 | 0.00 | 0.00 | 79 | 1036.7 |
| 20260506081125 | 58 | 337 | 0.0 | 0.0 | 0.00 | 0.00 | 0.00 | 78 | 1036.7 |
| 20260506072224 | 59 | 180 | 0.0 | 0.0 | 0.00 | 0.00 | 0.00 | 79 | 1036.9 |
| 20260506071226 | 59 | 180 | 0.0 | 0.0 | 0.00 | 0.00 | 0.00 | 79 | 1036.8 |
| 20260506070228 | 59 | 180 | 0.0 | 0.0 | 0.00 | 0.00 | 0.00 | 79 | 1036.9 |
| 20260506062320 | 59 | 337 | 0.0 | 0.0 | 0.00 | 0.00 | 0.00 | 79 | 1036.5 |
| 20260506061419 | 59 | 337 | 0.0 | 0.0 | 0.00 | 0.00 | 0.00 | 78 | 1036.5 |
| 20260506060419 | 59 | 337 | 0.0 | 0.0 | 0.00 | 0.00 | 0.00 | 80 | 1036.4 |
| 20260506050619 | 59 | 322 | 0.0 | 0.0 | 0.00 | 0.00 | 0.00 | 78 | 1036.4 |
| 20260506044618 | 59 | 315 | 0.0 | 0.0 | 0.00 | 0.00 | 0.00 | 78 | 1036.1 |
| 20260506043619 | 59 | 315 | 0.0 | 0.0 | 0.00 | 0.00 | 0.00 | 78 | 1036.0 |
| 20260506042620 | 59 | 315 | 0.0 | 0.0 | 0.00 | 0.00 | 0.00 | 78 | 1035.9 |
| 20260506041618 | 59 | 337 | 0.0 | 0.0 | 0.00 | 0.00 | 0.00 | 77 | 1035.9 |
| 20260506040619 | 59 | 315 | 0.0 | 0.0 | 0.00 | 0.00 | 0.00 | 78 | 1035.8 |
| 20260506035620 | 59 | 317 | 0.0 | 0.0 | 0.00 | 0.00 | 0.00 | 79 | 1035.6 |
| 20260506033621 | 59 | 315 | 0.0 | 0.0 | 0.00 | 0.00 | 0.00 | 78 | 1035.2 |
| 20260506032620 | 59 | 336 | 0.0 | 0.0 | 0.00 | 0.00 | 0.00 | 78 | 1035.2 |
| 20260506031621 | 59 | 323 | 0.0 | 0.0 | 0.00 | 0.00 | 0.00 | 78 | 1035.0 |
| 20260506030621 | 59 | 320 | 0.0 | 0.0 | 0.00 | 0.00 | 0.00 | 78 | 1034.9 |
| 20260506025621 | 60 | 315 | 0.0 | 0.0 | 0.00 | 0.00 | 0.00 | 79 | 1034.8 |
| 20260506024720 | 60 | 316 | 0.0 | 0.0 | 0.00 | 0.00 | 0.00 | 78 | 1034.8 |
| 20260506023820 | 60 | 320 | 0.0 | 0.0 | 0.00 | 0.00 | 0.00 | 78 | 1034.6 |
| 20260506022819 | 60 | 333 | 0.0 | 0.0 | 0.00 | 0.00 | 0.00 | 78 | 1034.5 |
| 20260506021819 | 61 | 315 | 0.0 | 0.0 | 0.00 | 0.00 | 0.00 | 79 | 1034.3 |
| 20260506020819 | 61 | 329 | 0.0 | 0.0 | 0.00 | 0.00 | 0.00 | 80 | 1034.3 |
| 20260506015820 | 61 | 323 | 0.0 | 0.0 | 0.00 | 0.00 | 0.00 | 78 | 1034.2 |
| 20260506014820 | 62 | 319 | 0.0 | 0.0 | 0.00 | 0.00 | 0.00 | 81 | 1034.1 |
| 20260506011920 | 64 | 325 | 0.0 | 0.0 | 0.00 | 0.00 | 0.00 | 81 | 1033.7 |
| 20260506010919 | 64 | 333 | 0.0 | 0.0 | 0.00 | 0.00 | 0.00 | 82 | 1033.7 |
| 20260506005920 | 65 | 323 | 0.0 | 0.0 | 0.00 | 0.00 | 0.00 | 84 | 1033.9 |
| 20260506005019 | 65 | 320 | 0.0 | 0.0 | 0.00 | 0.00 | 0.00 | 84 | 1033.6 |
| 20260506004020 | 65 | 323 | 0.0 | 0.0 | 0.00 | 0.00 | 0.00 | 85 | 1033.7 |
| 20260506003019 | 65 | 317 | 0.0 | 0.0 | 0.00 | 0.00 | 0.00 | 85 | 1033.7 |
| 20260506001022 | 65 | 319 | 0.0 | 0.0 | 0.00 | 0.00 | 0.00 | 82 | 1033.4 |
| 20260506000118 | 66 | 319 | 0.0 | 0.0 | 0.00 | 0.00 | 0.00 | 82 | 1033.4 |
| 20260505235122 | 66 | 317 | 0.0 | 0.0 | 0.00 | 0.00 | 0.00 | 86 | 1033.6 |
| 20260505234218 | 66 | 320 | 0.0 | 0.0 | 0.00 | 0.00 | 0.00 | 83 | 1033.5 |
| 20260505233221 | 66 | 320 | 0.0 | 0.0 | 0.00 | 0.00 | 0.00 | 86 | 1033.5 |
| 20260505232221 | 66 | 326 | 0.0 | 0.0 | 0.00 | 0.00 | 0.00 | 85 | 1033.7 |
| 20260505231320 | 66 | 319 | 0.0 | 0.0 | 0.00 | 0.00 | 0.00 | 85 | 1033.6 |
| 20260505230320 | 67 | 316 | 0.0 | 0.0 | 0.00 | 0.00 | 0.00 | 88 | 1033.6 |
| 20260505225320 | 67 | 319 | 0.0 | 0.0 | 0.00 | 0.00 | 0.00 | 88 | 1033.6 |
| 20260505223419 | 67 | 317 | 0.0 | 0.0 | 0.00 | 0.00 | 0.00 | 85 | 1033.8 |
| 20260505222420 | 67 | 322 | 0.0 | 0.0 | 0.00 | 0.00 | 0.00 | 86 | 1033.8 |
| 20260505221420 | 67 | 318 | 0.0 | 0.0 | 0.00 | 0.00 | 0.00 | 86 | 1033.9 |
| 20260505220518 | 67 | 325 | 0.0 | 0.0 | 0.00 | 0.00 | 0.00 | 85 | 1034.0 |
| 20260505215519 | 67 | 316 | 0.0 | 0.0 | 0.00 | 0.00 | 0.00 | 86 | 1034.1 |
| 20260505214521 | 67 | 322 | 0.0 | 0.0 | 0.00 | 0.00 | 0.00 | 86 | 1034.0 |
| 20260505213619 | 67 | 324 | 0.0 | 0.0 | 0.00 | 0.00 | 0.00 | 84 | 1034.2 |
| 20260505212620 | 67 | 322 | 0.0 | 0.0 | 0.00 | 0.00 | 0.00 | 85 | 1034.3 |
| 20260505210620 | 66 | 320 | 0.0 | 0.0 | 0.00 | 0.00 | 0.00 | 84 | 1034.5 |
| 20260505204719 | 66 | 323 | 0.0 | 0.0 | 0.00 | 0.00 | 0.00 | 84 | 1034.6 |
| 20260505203720 | 66 | 319 | 0.0 | 0.0 | 0.00 | 0.00 | 0.00 | 84 | 1034.6 |
| 20260505202720 | 66 | 323 | 0.0 | 0.0 | 0.00 | 0.00 | 0.00 | 83 | 1034.6 |
| 20260505201721 | 66 | 319 | 0.0 | 0.0 | 0.00 | 0.00 | 0.00 | 82 | 1034.6 |
| 20260505200719 | 66 | 320 | 0.0 | 0.0 | 0.00 | 0.00 | 0.00 | 84 | 1034.6 |
| 20260505195719 | 65 | 318 | 0.0 | 0.0 | 0.00 | 0.00 | 0.00 | 82 | 1034.8 |
| 20260505194720 | 65 | 316 | 0.0 | 0.0 | 0.00 | 0.00 | 0.00 | 84 | 1034.8 |
| 20260505193818 | 65 | 317 | 0.0 | 0.0 | 0.00 | 0.00 | 0.00 | 85 | 1034.8 |
| 20260505192820 | 64 | 332 | 0.0 | 0.0 | 0.00 | 0.00 | 0.00 | 82 | 1034.8 |
| 20260505191821 | 64 | 319 | 0.0 | 0.0 | 0.00 | 0.00 | 0.00 | 82 | 1034.9 |
| 20260505190820 | 64 | 319 | 0.0 | 0.0 | 0.00 | 0.00 | 0.00 | 81 | 1034.9 |
| 20260505185821 | 64 | 319 | 0.0 | 0.0 | 0.00 | 0.00 | 0.00 | 81 | 1034.9 |
| 20260505184822 | 64 | 324 | 0.0 | 0.0 | 0.00 | 0.00 | 0.00 | 81 | 1034.9 |
| 20260505183818 | 63 | 318 | 0.0 | 0.0 | 0.00 | 0.00 | 0.00 | 81 | 1035.0 |
| 20260505181919 | 63 | 316 | 0.0 | 0.0 | 0.00 | 0.00 | 0.00 | 76 | 1035.0 |
| 20260505174921 | 61 | 322 | 0.0 | 0.0 | 0.00 | 0.00 | 0.00 | 83 | 1034.7 |
| 20260505172919 | 61 | 323 | 0.0 | 0.0 | 0.00 | 0.00 | 0.00 | 82 | 1034.5 |
| 20260505171919 | 62 | 320 | 0.0 | 0.0 | 0.00 | 0.00 | 0.00 | 82 | 1034.3 |
| 20260505170920 | 62 | 318 | 0.0 | 0.0 | 0.00 | 0.00 | 0.00 | 85 | 1034.1 |
| 20260505165018 | 62 | 322 | 0.0 | 0.0 | 0.00 | 0.00 | 0.00 | 87 | 1034.2 |
| 20260505164020 | 61 | 327 | 0.0 | 0.0 | 0.00 | 0.00 | 0.00 | 83 | 1034.0 |
| 20260505163020 | 60 | 326 | 0.0 | 0.0 | 0.00 | 0.00 | 0.00 | 83 | 1033.9 |
| 20260505162021 | 60 | 327 | 0.0 | 0.0 | 0.00 | 0.00 | 0.00 | 86 | 1033.8 |
| 20260505152020 | 58 | 319 | 0.0 | 0.0 | 0.00 | 0.00 | 0.00 | 91 | 1033.4 |
| 20260505151022 | 58 | 326 | 0.0 | 0.0 | 0.00 | 0.00 | 0.00 | 92 | 1033.4 |